Weather History for Moncks Corner, SC

Change the Weather History Date:

Monday, January 21, 2013

  Actual Average (KCHS) Record (KCHS)
Temperature  
Mean Temperature 52 °F 48 °F  
Max Temperature 68 °F 59 °F 80 °F (1954)
Min Temperature 35 °F 38 °F 6 °F (1985)
Degree Days  
Heating Degree Days 14 17  
Month to date heating degree days 357  
Since 1 July heating degree days 1095  
Cooling Degree Days 0 0  
Month to date cooling degree days 0  
Year to date cooling degree days 0  
Growing Degree Days 2 (Base 50)    
Moisture  
Dew Point 35 °F    
Average Humidity 59    
Maximum Humidity 93    
Minimum Humidity 23    
Precipitation  
Precipitation 0.00 in 0.12 in 2.47 in (1983)
Month to date precipitation 2.51  
Year to date precipitation 2.51  
Sea Level Pressure  
Sea Level Pressure 30.04 in    
Wind  
Wind Speed 2 mph (WSW)    
Max Wind Speed 12 mph    
Max Gust Speed 16 mph    
Visibility 8 miles    
Events      
T = Trace of Precipitation, MM = Missing Value Source: NWS Daily Summary

Daily Weather History Graph

Daily Weather History Graph

Search for Another Location

Airport:

Trip Planner

Search our weather history database for the weather conditions in past years. The results will help you decide how hot, cold, wet, or windy it might be!

Date:

Astronomy

Jan. 21, 2013 Rise Set
Actual Time 7:21 AM EST 5:41 PM EST
Civil Twilight 6:55 AM EST 6:08 PM EST
Nautical Twilight 6:24 AM EST 6:38 PM EST
Astronomical Twilight 5:55 AM EST 7:08 PM EST
Moon 1:21 PM EST (1/21) 2:47 AM EST (1/21)
Length of Visible Light 11h 13m
Length of Day
10h 20m
Waxing Gibbous, 75% of the Moon is Illuminated
Jan 21
Waxing Gibbous
Jan 26
Full
Feb 3
Last Quarter
Feb 10
New
Feb 17
First Quarter

Hourly Weather History & Observations

Time (EST) Temp. Dew Point Humidity Pressure Visibility Wind Dir Wind Speed Gust Speed Precip Events Conditions
12:15 AM 41.0 °F 35.6 °F 81% 30.10 in 10.0 mi Calm Calm - N/A   Clear
12:35 AM 41.0 °F 35.6 °F 81% 30.09 in 10.0 mi Calm Calm - N/A   Clear
12:55 AM 41.0 °F 35.6 °F 81% 30.09 in 7.0 mi Calm Calm - N/A   Clear
1:15 AM 41.0 °F 37.4 °F 87% 30.08 in 7.0 mi Calm Calm - N/A   Clear
1:35 AM 41.0 °F 35.6 °F 81% 30.08 in 10.0 mi Calm Calm - N/A   Clear
1:55 AM 41.0 °F 35.6 °F 81% 30.08 in 10.0 mi Calm Calm - N/A   Clear
2:15 AM 41.0 °F 35.6 °F 81% 30.08 in 10.0 mi Calm Calm - N/A   Clear
2:35 AM 39.2 °F 35.6 °F 87% 30.07 in 10.0 mi Calm Calm - N/A   Clear
2:55 AM 39.2 °F 35.6 °F 87% 30.07 in 7.0 mi Calm Calm - N/A   Clear
3:15 AM 39.2 °F 35.6 °F 87% 30.07 in 10.0 mi Calm Calm - N/A   Clear
3:35 AM 39.2 °F 35.6 °F 87% 30.07 in 10.0 mi Calm Calm - N/A   Clear
3:55 AM 39.2 °F 35.6 °F 87% 30.06 in 10.0 mi Calm Calm - N/A   Clear
4:35 AM 39.2 °F 35.6 °F 87% 30.06 in 7.0 mi Calm Calm - N/A   Clear
4:55 AM 39.2 °F 35.6 °F 87% 30.05 in 10.0 mi Calm Calm - N/A   Clear
5:15 AM 39.2 °F 35.6 °F 87% 30.05 in 10.0 mi Calm Calm - N/A   Clear
5:35 AM 37.4 °F 33.8 °F 87% 30.05 in 10.0 mi Calm Calm - N/A   Clear
5:55 AM 37.4 °F 33.8 °F 87% 30.05 in 10.0 mi Calm Calm - N/A   Clear
6:15 AM 37.4 °F 33.8 °F 87% 30.05 in 10.0 mi Calm Calm - N/A   Clear
6:35 AM 37.4 °F 33.8 °F 87% 30.05 in 7.0 mi Calm Calm - N/A   Clear
7:15 AM 35.6 °F 33.8 °F 93% 30.07 in 10.0 mi Calm Calm - N/A   Clear
7:35 AM 35.6 °F 33.8 °F 93% 30.06 in 7.0 mi Calm Calm - N/A   Clear
7:55 AM 35.6 °F 32.0 °F 87% 30.07 in 7.0 mi Calm Calm - N/A   Clear
8:15 AM 35.6 °F 33.8 °F 93% 30.07 in 10.0 mi Calm Calm - N/A   Clear
8:35 AM 37.4 °F 35.6 °F 93% 30.07 in 7.0 mi Calm Calm - N/A   Clear
8:55 AM 42.8 °F 37.4 °F 81% 30.08 in 7.0 mi Calm Calm - N/A   Clear
9:15 AM 46.4 °F 37.4 °F 71% 30.08 in 5.0 mi Calm Calm - N/A   Haze
9:35 AM 48.2 °F 39.2 °F 71% 30.09 in 5.0 mi Calm Calm - N/A   Haze
9:55 AM 50.0 °F 39.2 °F 66% 30.10 in 5.0 mi WSW 3.5 mph - N/A   Haze
10:15 AM 53.6 °F 41.0 °F 62% 30.10 in 5.0 mi SW 3.5 mph - N/A   Haze
10:35 AM 55.4 °F 41.0 °F 58% 30.10 in 5.0 mi SW 3.5 mph - N/A   Haze
10:55 AM 59.0 °F 39.2 °F 48% 30.09 in 7.0 mi SW 4.6 mph - N/A   Clear
11:15 AM 60.8 °F 37.4 °F 42% 30.09 in 10.0 mi WSW 6.9 mph - N/A   Clear
11:35 AM 62.6 °F 35.6 °F 37% 30.07 in 7.0 mi WSW 5.8 mph - N/A   Clear
12:15 PM 64.4 °F 35.6 °F 34% 30.05 in 7.0 mi WSW 8.1 mph - N/A   Clear
12:35 PM 66.2 °F 33.8 °F 30% 30.04 in 7.0 mi WSW 5.8 mph - N/A   Clear
12:55 PM 66.2 °F 32.0 °F 28% 30.03 in 7.0 mi SW 11.5 mph 16.1 mph N/A   Clear
1:15 PM 66.2 °F 32.0 °F 28% 30.01 in 10.0 mi West 4.6 mph - N/A   Clear
1:35 PM 68.0 °F 32.0 °F 26% 30.00 in 10.0 mi SW 9.2 mph - N/A   Clear
1:55 PM 68.0 °F 32.0 °F 26% 30.00 in 10.0 mi WSW 6.9 mph - N/A   Clear
2:15 PM 68.0 °F 28.4 °F 23% 29.99 in 10.0 mi WSW 10.4 mph 16.1 mph N/A   Clear
2:35 PM 68.0 °F 28.4 °F 23% 29.98 in 4.0 mi WSW 10.4 mph - N/A   Haze
2:55 PM 68.0 °F 30.2 °F 24% 29.97 in 10.0 mi WSW 6.9 mph - N/A   Clear
3:15 PM 68.0 °F 28.4 °F 23% 29.96 in 7.0 mi West 4.6 mph - N/A   Clear
3:35 PM 68.0 °F 30.2 °F 24% 29.96 in 7.0 mi West 3.5 mph - N/A   Clear
3:55 PM 66.2 °F 32.0 °F 28% 29.97 in 10.0 mi West 5.8 mph - N/A   Clear
4:15 PM 66.2 °F 32.0 °F 28% 29.97 in 7.0 mi WSW 6.9 mph - N/A   Clear
4:35 PM 64.4 °F 32.0 °F 30% 29.97 in 7.0 mi WSW 5.8 mph - N/A   Clear
5:15 PM 62.6 °F 33.8 °F 34% 29.98 in 10.0 mi WSW 4.6 mph - N/A   Clear
5:35 PM 60.8 °F 33.8 °F 36% 29.98 in 10.0 mi WSW 3.5 mph - N/A   Clear
6:15 PM 57.2 °F 35.6 °F 44% 29.98 in 10.0 mi Calm Calm - N/A   Clear
6:35 PM 53.6 °F 39.2 °F 58% 29.99 in 10.0 mi Calm Calm - N/A   Clear
6:55 PM 55.4 °F 37.4 °F 51% 30.00 in 7.0 mi Calm Calm - N/A   Clear
7:15 PM 55.4 °F 35.6 °F 47% 30.00 in 7.0 mi WSW 3.5 mph - N/A   Clear
7:35 PM 55.4 °F 35.6 °F 47% 30.00 in 10.0 mi WSW 3.5 mph - N/A   Clear
7:55 PM 55.4 °F 35.6 °F 47% 30.01 in 7.0 mi WSW 3.5 mph - N/A   Clear
8:15 PM 53.6 °F 35.6 °F 51% 30.01 in 10.0 mi Calm Calm - N/A   Clear
8:35 PM 51.8 °F 35.6 °F 54% 30.02 in 10.0 mi Calm Calm - N/A   Clear
8:55 PM 51.8 °F 35.6 °F 54% 30.02 in 10.0 mi WSW 3.5 mph - N/A   Clear
9:15 PM 53.6 °F 35.6 °F 51% 30.02 in 10.0 mi WSW 3.5 mph - N/A   Clear
9:35 PM 53.6 °F 35.6 °F 51% 30.02 in 10.0 mi WSW 3.5 mph - N/A   Clear
9:55 PM 53.6 °F 33.8 °F 47% 30.03 in 10.0 mi West 3.5 mph - N/A   Clear
10:15 PM 53.6 °F 33.8 °F 47% 30.03 in 10.0 mi WSW 3.5 mph - N/A   Clear
10:35 PM 51.8 °F 33.8 °F 50% 30.04 in 10.0 mi Calm Calm - N/A   Clear
10:55 PM 51.8 °F 33.8 °F 50% 30.04 in 10.0 mi WSW 4.6 mph - N/A   Clear
11:15 PM 50.0 °F 33.8 °F 54% 30.04 in 7.0 mi Calm Calm - N/A   Clear
11:35 PM 50.0 °F 33.8 °F 54% 30.04 in 10.0 mi Calm Calm - N/A   Clear
11:55 PM 50.0 °F 33.8 °F 54% 30.05 in 7.0 mi West 3.5 mph - N/A   Clear